| time (UTC) | temp F | wind direction | speed knots | gust knots | rain 1hr in | rain 24hr in | rain mn in | humidity % | barometer mb |
| 20260507174638 | 64 | 53 | 1.7 | 3.5 | 0.00 | 0.29 | 0.29 | 63 | 999.7 |
| 20260507174136 | 65 | 315 | 1.7 | 4.3 | 0.00 | 0.29 | 0.29 | 60 | 999.8 |
| 20260507173633 | 64 | 235 | 1.7 | 6.1 | 0.00 | 0.29 | 0.29 | 63 | 999.6 |
| 20260507173130 | 63 | 247 | 3.5 | 3.5 | 0.00 | 0.29 | 0.29 | 61 | 999.6 |
| 20260507172626 | 64 | 270 | 1.7 | 3.5 | 0.00 | 0.29 | 0.29 | 64 | 999.9 |
| 20260507172124 | 62 | 17 | 2.6 | 3.5 | 0.00 | 0.29 | 0.29 | 65 | 1000.0 |
| 20260507171619 | 64 | 292 | 1.7 | 4.3 | 0.00 | 0.29 | 0.29 | 65 | 1000.0 |
| 20260507171116 | 62 | 247 | 1.7 | 5.2 | 0.00 | 0.29 | 0.29 | 67 | 1000.1 |
| 20260507170613 | 61 | 275 | 2.6 | 6.1 | 0.00 | 0.29 | 0.29 | 67 | 1000.1 |
| 20260507170110 | 63 | 311 | 4.3 | 7.0 | 0.00 | 0.29 | 0.29 | 65 | 1000.1 |
| 20260507165605 | 61 | 303 | 1.7 | 4.3 | 0.00 | 0.29 | 0.29 | 66 | 1000.1 |
| 20260507165102 | 61 | 86 | 2.6 | 3.5 | 0.00 | 0.29 | 0.29 | 71 | 1000.4 |
| 20260507164558 | 61 | 321 | 2.6 | 3.5 | 0.00 | 0.29 | 0.29 | 70 | 1000.3 |
| 20260507164055 | 60 | 48 | 3.5 | 3.5 | 0.00 | 0.29 | 0.29 | 70 | 1000.4 |
| 20260507163552 | 61 | 289 | 0.0 | 3.5 | 0.00 | 0.29 | 0.29 | 71 | 1000.6 |
| 20260507163050 | 62 | 336 | 1.7 | 4.3 | 0.00 | 0.29 | 0.29 | 69 | 1000.4 |
| 20260507162550 | 60 | 297 | 2.6 | 7.8 | 0.00 | 0.29 | 0.29 | 74 | 1000.5 |
| 20260507162048 | 60 | 68 | 1.7 | 3.5 | 0.00 | 0.29 | 0.29 | 73 | 1000.2 |
| 20260507161544 | 60 | 228 | 1.7 | 3.5 | 0.00 | 0.29 | 0.29 | 73 | 1000.5 |
| 20260507161040 | 59 | 270 | 1.7 | 4.3 | 0.00 | 0.29 | 0.29 | 71 | 1000.3 |
| 20260507160537 | 60 | 273 | 2.6 | 6.1 | 0.00 | 0.29 | 0.29 | 71 | 1000.5 |
| 20260507160033 | 59 | 304 | 4.3 | 7.0 | 0.00 | 0.29 | 0.29 | 74 | 1000.3 |
| 20260507155529 | 59 | 247 | 4.3 | 6.1 | 0.00 | 0.29 | 0.29 | 76 | 1000.4 |
| 20260507155026 | 61 | 290 | 3.5 | 3.5 | 0.00 | 0.29 | 0.29 | 74 | 1000.6 |
| 20260507154522 | 59 | 241 | 2.6 | 3.5 | 0.00 | 0.29 | 0.29 | 74 | 1000.7 |
| 20260507154020 | 57 | 270 | 2.6 | 5.2 | 0.00 | 0.29 | 0.29 | 77 | 1001.0 |
| 20260507153516 | 60 | 18 | 0.0 | 3.5 | 0.00 | 0.29 | 0.29 | 75 | 1000.9 |
| 20260507153013 | 59 | 221 | 3.5 | 4.3 | 0.00 | 0.29 | 0.29 | 74 | 1001.2 |
| 20260507152508 | 60 | 244 | 3.5 | 4.3 | 0.00 | 0.29 | 0.29 | 76 | 1001.4 |
| 20260507152005 | 59 | 272 | 3.5 | 7.0 | 0.00 | 0.29 | 0.29 | 76 | 1001.1 |
| 20260507151501 | 60 | 90 | 0.0 | 4.3 | 0.00 | 0.29 | 0.29 | 75 | 1001.2 |
| 20260507150958 | 59 | 270 | 2.6 | 4.3 | 0.00 | 0.29 | 0.29 | 79 | 1001.0 |
| 20260507150455 | 59 | 274 | 2.6 | 4.3 | 0.00 | 0.29 | 0.29 | 75 | 1001.1 |
| 20260507145951 | 59 | 300 | 4.3 | 5.2 | 0.00 | 0.29 | 0.29 | 77 | 1001.2 |
| 20260507145447 | 57 | 219 | 2.6 | 3.5 | 0.00 | 0.29 | 0.29 | 81 | 1001.3 |
| 20260507144944 | 58 | 40 | 2.6 | 3.5 | 0.00 | 0.29 | 0.29 | 82 | 1001.4 |
| 20260507144441 | 55 | 252 | 2.6 | 5.2 | 0.00 | 0.29 | 0.29 | 82 | 1001.7 |
| 20260507143938 | 56 | 290 | 4.3 | 5.2 | 0.00 | 0.29 | 0.29 | 84 | 1001.5 |
| 20260507143436 | 55 | 274 | 1.7 | 3.5 | 0.00 | 0.29 | 0.29 | 85 | 1002.1 |
| 20260507142932 | 55 | 203 | 0.9 | 3.5 | 0.00 | 0.29 | 0.29 | 87 | 1001.7 |
| 20260507142428 | 56 | 259 | 2.6 | 5.2 | 0.00 | 0.29 | 0.29 | 88 | 1001.7 |
| 20260507141925 | 56 | 266 | 2.6 | 2.6 | 0.00 | 0.29 | 0.29 | 87 | 1001.6 |
| 20260507141421 | 55 | 286 | 0.0 | 4.3 | 0.00 | 0.29 | 0.29 | 87 | 1001.5 |
| 20260507140918 | 56 | 195 | 0.9 | 5.2 | 0.00 | 0.29 | 0.29 | 87 | 1001.4 |
| 20260507140415 | 57 | 241 | 1.7 | 3.5 | 0.00 | 0.29 | 0.29 | 86 | 1001.4 |
| 20260507135913 | 56 | 320 | 0.0 | 3.5 | 0.00 | 0.29 | 0.29 | 84 | 1001.6 |
| 20260507135409 | 56 | 276 | 0.0 | 3.5 | 0.00 | 0.29 | 0.29 | 86 | 1001.4 |
| 20260507134907 | 55 | 201 | 2.6 | 3.5 | 0.00 | 0.29 | 0.29 | 87 | 1001.4 |
| 20260507134403 | 57 | 279 | 0.0 | 4.3 | 0.00 | 0.29 | 0.29 | 88 | 1001.4 |
| 20260507133859 | 55 | 261 | 3.5 | 3.5 | 0.00 | 0.29 | 0.29 | 87 | 1001.1 |
| 20260507133354 | 54 | 281 | 1.7 | 4.3 | 0.00 | 0.29 | 0.29 | 88 | 1001.4 |
| 20260507132854 | 55 | 299 | 1.7 | 2.6 | 0.00 | 0.29 | 0.29 | 89 | 1001.3 |
| 20260507132349 | 54 | 51 | 3.5 | 3.5 | 0.00 | 0.29 | 0.29 | 90 | 1001.1 |
| 20260507131847 | 54 | 264 | 0.9 | 3.5 | 0.00 | 0.29 | 0.29 | 91 | 1001.2 |
| 20260507131343 | 54 | 280 | 2.6 | 4.3 | 0.00 | 0.29 | 0.29 | 91 | 1001.4 |
| 20260507130840 | 53 | 235 | 2.6 | 3.5 | 0.00 | 0.29 | 0.29 | 92 | 1001.5 |
| 20260507130336 | 55 | 208 | 1.7 | 3.5 | 0.00 | 0.29 | 0.29 | 94 | 1001.7 |
| 20260507125831 | 55 | 260 | 1.7 | 3.5 | 0.00 | 0.29 | 0.29 | 93 | 1001.6 |
| 20260507125327 | 54 | 238 | 2.6 | 3.5 | 0.00 | 0.29 | 0.29 | 94 | 1002.0 |
| 20260507124825 | 54 | 246 | 2.6 | 3.5 | 0.00 | 0.29 | 0.29 | 94 | 1002.0 |
| 20260507124321 | 54 | 241 | 1.7 | 2.6 | 0.00 | 0.29 | 0.29 | 94 | 1002.1 |
| 20260507123820 | 54 | 255 | 1.7 | 2.6 | 0.00 | 0.29 | 0.29 | 94 | 1002.1 |
| 20260507123316 | 54 | 279 | 1.7 | 4.3 | 0.00 | 0.29 | 0.29 | 94 | 1002.1 |
| 20260507122812 | 54 | 261 | 0.0 | 3.5 | 0.00 | 0.29 | 0.29 | 95 | 1001.8 |
| 20260507122308 | 54 | 291 | 0.0 | 4.3 | 0.00 | 0.29 | 0.29 | 95 | 1002.1 |
| 20260507121804 | 55 | 300 | 0.0 | 2.6 | 0.00 | 0.29 | 0.29 | 94 | 1001.6 |
| 20260507121301 | 54 | 289 | 4.3 | 4.3 | 0.00 | 0.29 | 0.29 | 93 | 1001.5 |
| 20260507120757 | 55 | 243 | 0.9 | 2.6 | 0.00 | 0.29 | 0.29 | 94 | 1002.0 |
| 20260507120253 | 54 | 266 | 2.6 | 2.6 | 0.00 | 0.29 | 0.29 | 93 | 1001.4 |
| 20260507115750 | 54 | 274 | 0.0 | 4.3 | 0.00 | 0.29 | 0.29 | 94 | 1001.3 |
| 20260507115245 | 54 | 345 | 0.0 | 2.6 | 0.00 | 0.29 | 0.29 | 93 | 1001.2 |
| 20260507114741 | 54 | 215 | 0.9 | 4.3 | 0.00 | 0.29 | 0.29 | 94 | 1001.5 |
| 20260507114239 | 53 | 249 | 2.6 | 5.2 | 0.00 | 0.29 | 0.29 | 95 | 1001.3 |
| 20260507113736 | 53 | 206 | 2.6 | 4.3 | 0.00 | 0.29 | 0.29 | 97 | 1001.2 |
| 20260507113233 | 53 | 242 | 3.5 | 3.5 | 0.00 | 0.29 | 0.29 | 98 | 1001.3 |
| 20260507112731 | 53 | 209 | 0.9 | 3.5 | 0.00 | 0.29 | 0.29 | 99 | 1001.3 |
| 20260507112227 | 53 | 203 | 0.9 | 3.5 | 0.00 | 0.29 | 0.29 | 99 | 1001.7 |
| 20260507111725 | 53 | 246 | 0.0 | 3.5 | 0.00 | 0.29 | 0.29 | 99 | 1001.4 |
| 20260507111221 | 53 | 225 | 1.7 | 3.5 | 0.00 | 0.29 | 0.29 | 99 | 1001.5 |
| 20260507110717 | 53 | 259 | 1.7 | 2.6 | 0.00 | 0.29 | 0.29 | 99 | 1001.3 |
| 20260507110214 | 53 | 234 | 2.6 | 4.3 | 0.00 | 0.29 | 0.29 | 99 | 1001.1 |
| 20260507105711 | 53 | 245 | 1.7 | 3.5 | 0.00 | 0.29 | 0.29 | 99 | 1001.2 |
| 20260507105207 | 53 | 270 | 0.0 | 2.6 | 0.00 | 0.29 | 0.29 | 99 | 1001.3 |
| 20260507104704 | 53 | 338 | 6.1 | 6.1 | 0.00 | 0.29 | 0.29 | 99 | 1001.2 |
| 20260507104201 | 53 | 246 | 2.6 | 3.5 | 0.00 | 0.29 | 0.29 | 99 | 1001.3 |
| 20260507103657 | 54 | 210 | 1.7 | 4.3 | 0.00 | 0.29 | 0.29 | 99 | 1001.5 |
| 20260507103153 | 53 | 254 | 2.6 | 3.5 | 0.00 | 0.29 | 0.29 | 99 | 1001.4 |
| 20260507102650 | 53 | 259 | 1.7 | 3.5 | 0.00 | 0.29 | 0.29 | 99 | 1000.9 |
| 20260507102146 | 53 | 270 | 2.6 | 2.6 | 0.00 | 0.29 | 0.29 | 99 | 1001.1 |
| 20260507101642 | 54 | 251 | 1.7 | 2.6 | 0.00 | 0.29 | 0.29 | 99 | 1000.9 |
| 20260507101138 | 53 | 270 | 1.7 | 1.7 | 0.00 | 0.29 | 0.29 | 99 | 1000.6 |
| 20260507100636 | 54 | 248 | 1.7 | 2.6 | 0.00 | 0.29 | 0.29 | 99 | 1000.4 |
| 20260507100134 | 54 | 210 | 1.7 | 2.6 | 0.00 | 0.29 | 0.29 | 99 | 1000.9 |
| 20260507095632 | 54 | 251 | 1.7 | 2.6 | 0.00 | 0.29 | 0.29 | 99 | 1000.8 |
| 20260507095128 | 54 | 236 | 1.7 | 1.7 | 0.00 | 0.29 | 0.29 | 99 | 1000.5 |
| 20260507094624 | 54 | 247 | 2.6 | 3.5 | 0.00 | 0.29 | 0.29 | 99 | 1000.7 |
| 20260507094121 | 54 | 251 | 1.7 | 4.3 | 0.00 | 0.29 | 0.29 | 99 | 1000.8 |
| 20260507093618 | 54 | 255 | 1.7 | 3.5 | 0.00 | 0.29 | 0.29 | 99 | 1000.7 |
| 20260507093117 | 54 | 235 | 2.6 | 3.5 | 0.00 | 0.29 | 0.29 | 99 | 1000.4 |
| 20260507092613 | 55 | 265 | 1.7 | 3.5 | 0.00 | 0.29 | 0.29 | 99 | 1000.3 |
| 20260507092110 | 55 | 227 | 2.6 | 3.5 | 0.00 | 0.29 | 0.29 | 99 | 1000.0 |
| 20260507091607 | 55 | 238 | 2.6 | 4.3 | 0.00 | 0.29 | 0.29 | 99 | 1000.2 |
| 20260507091103 | 55 | 231 | 2.6 | 3.5 | 0.02 | 0.29 | 0.29 | 99 | 1000.0 |
| 20260507090559 | 55 | 230 | 1.7 | 2.6 | 0.02 | 0.29 | 0.29 | 99 | 1000.0 |
| 20260507090056 | 55 | 206 | 0.9 | 2.6 | 0.00 | 0.28 | 0.28 | 99 | 999.9 |
| 20260507085553 | 55 | 233 | 1.7 | 3.5 | 0.00 | 0.28 | 0.28 | 99 | 999.8 |
| 20260507085049 | 55 | 188 | 0.0 | 2.6 | 0.00 | 0.28 | 0.28 | 99 | 999.7 |
| 20260507084546 | 55 | 243 | 0.9 | 2.6 | 0.00 | 0.28 | 0.28 | 99 | 999.7 |
| 20260507084043 | 56 | 227 | 2.6 | 3.5 | 0.00 | 0.28 | 0.28 | 99 | 999.8 |
| 20260507083539 | 56 | 216 | 2.6 | 2.6 | 0.05 | 0.28 | 0.28 | 99 | 999.4 |
| 20260507083037 | 56 | 219 | 1.7 | 2.6 | 0.12 | 0.28 | 0.28 | 99 | 999.3 |
| 20260507082532 | 56 | 254 | 0.0 | 1.7 | 0.14 | 0.27 | 0.27 | 99 | 999.1 |
| 20260507082029 | 56 | 240 | 0.0 | 1.7 | 0.09 | 0.26 | 0.26 | 99 | 999.2 |
| 20260507081525 | 56 | 217 | 0.0 | 1.7 | 0.12 | 0.25 | 0.25 | 99 | 999.5 |
| 20260507081023 | 56 | 194 | 0.9 | 4.3 | 0.19 | 0.24 | 0.24 | 99 | 999.4 |
| 20260507080518 | 56 | 219 | 2.6 | 3.5 | 0.28 | 0.22 | 0.22 | 99 | 999.5 |
| 20260507080015 | 56 | 204 | 1.7 | 2.6 | 0.26 | 0.20 | 0.20 | 99 | 999.7 |
| 20260507075510 | 56 | 220 | 2.6 | 4.3 | 0.12 | 0.17 | 0.17 | 99 | 1000.3 |
| 20260507075007 | 56 | 165 | 1.7 | 3.5 | 0.02 | 0.15 | 0.15 | 99 | 1000.0 |
| 20260507074503 | 56 | 194 | 0.0 | 7.0 | 0.00 | 0.15 | 0.15 | 99 | 999.6 |
| 20260507074002 | 56 | 218 | 2.6 | 4.3 | 0.02 | 0.15 | 0.15 | 99 | 999.6 |
| 20260507073458 | 56 | 208 | 1.7 | 3.5 | 0.02 | 0.15 | 0.15 | 99 | 999.4 |
| 20260507072954 | 56 | 217 | 1.7 | 3.5 | 0.00 | 0.15 | 0.15 | 99 | 999.3 |
| 20260507072452 | 57 | 220 | 2.6 | 2.6 | 0.00 | 0.15 | 0.15 | 99 | 999.3 |
| 20260507071949 | 57 | 222 | 2.6 | 3.5 | 0.02 | 0.15 | 0.15 | 99 | 999.3 |
| 20260507071446 | 57 | 220 | 2.6 | 3.5 | 0.14 | 0.15 | 0.15 | 99 | 999.5 |
| 20260507070943 | 57 | 192 | 1.7 | 3.5 | 0.19 | 0.14 | 0.14 | 99 | 999.5 |
| 20260507070440 | 57 | 232 | 1.7 | 7.8 | 0.14 | 0.12 | 0.12 | 99 | 999.5 |
| 20260507065936 | 57 | 225 | 2.6 | 5.2 | 0.17 | 0.11 | 0.11 | 99 | 999.6 |
| 20260507065433 | 57 | 214 | 2.6 | 6.1 | 0.09 | 0.09 | 0.09 | 99 | 999.8 |
| 20260507064925 | 57 | 241 | 2.6 | 5.2 | 0.14 | 0.08 | 0.08 | 99 | 999.5 |
| 20260507064423 | 57 | 212 | 3.5 | 3.5 | 0.12 | 0.07 | 0.07 | 99 | 999.8 |
| 20260507063921 | 57 | 210 | 1.7 | 4.3 | 0.05 | 0.06 | 0.06 | 99 | 999.5 |
| 20260507063417 | 57 | 261 | 1.7 | 4.3 | 0.05 | 0.05 | 0.05 | 99 | 999.8 |
| 20260507062915 | 57 | 168 | 2.6 | 7.0 | 0.02 | 0.05 | 0.05 | 99 | 999.9 |
| 20260507062411 | 57 | 226 | 4.3 | 7.8 | 0.02 | 0.04 | 0.04 | 99 | 999.7 |
| 20260507061909 | 57 | 214 | 4.3 | 8.7 | 0.07 | 0.04 | 0.04 | 99 | 999.6 |
| 20260507061407 | 58 | 185 | 1.7 | 5.2 | 0.07 | 0.04 | 0.04 | 99 | 999.7 |
| 20260507060905 | 58 | 240 | 2.6 | 6.1 | 0.02 | 0.03 | 0.03 | 99 | 999.8 |
| 20260507060401 | 58 | 239 | 1.7 | 7.8 | 0.02 | 0.03 | 0.03 | 99 | 999.9 |
| 20260507055858 | 58 | 302 | 2.6 | 9.6 | 0.00 | 0.02 | 0.02 | 99 | 999.7 |
| 20260507055353 | 58 | 206 | 5.2 | 11.3 | 0.00 | 0.02 | 0.02 | 99 | 999.6 |
| 20260507054850 | 58 | 230 | 5.2 | 7.8 | 0.00 | 0.02 | 0.02 | 99 | 999.6 |
| 20260507054346 | 59 | 237 | 4.3 | 7.8 | 0.00 | 0.02 | 0.02 | 99 | 999.5 |
| 20260507053844 | 59 | 0 | 0.9 | 7.8 | 0.00 | 0.02 | 0.02 | 99 | 999.7 |
| 20260507053341 | 59 | 225 | 9.6 | 10.4 | 0.00 | 0.02 | 0.02 | 99 | 999.7 |
| 20260507052840 | 59 | 218 | 4.3 | 11.3 | 0.00 | 0.02 | 0.02 | 99 | 999.9 |
| 20260507052336 | 59 | 180 | 1.7 | 10.4 | 0.00 | 0.02 | 0.02 | 99 | 999.9 |
| 20260507051834 | 59 | 235 | 4.3 | 10.4 | 0.02 | 0.02 | 0.02 | 99 | 999.9 |
| 20260507051331 | 59 | 214 | 3.5 | 7.8 | 0.02 | 0.02 | 0.02 | 99 | 1000.2 |
| 20260507050828 | 59 | 254 | 4.3 | 13.0 | 0.05 | 0.02 | 0.02 | 99 | 1000.4 |
| 20260507050324 | 59 | 176 | 3.5 | 6.1 | 0.02 | 0.02 | 0.02 | 99 | 1000.6 |
| 20260507045822 | 60 | 228 | 8.7 | 8.7 | 0.00 | 0.01 | 0.01 | 99 | 1000.5 |
| 20260507045318 | 60 | 143 | 3.5 | 9.6 | 0.00 | 0.01 | 0.01 | 99 | 1000.9 |
| 20260507044815 | 60 | 210 | 4.3 | 4.3 | 0.00 | 0.01 | 0.01 | 99 | 1000.7 |
| 20260507044312 | 60 | 186 | 3.5 | 7.8 | 0.00 | 0.01 | 0.01 | 99 | 1001.0 |
| 20260507043808 | 60 | 206 | 4.3 | 7.0 | 0.02 | 0.01 | 0.01 | 99 | 1001.3 |
| 20260507043305 | 60 | 168 | 7.0 | 10.4 | 0.00 | 0.01 | 0.01 | 99 | 1001.4 |
| 20260507042801 | 60 | 233 | 7.8 | 7.8 | 0.00 | 0.01 | 0.01 | 99 | 1001.2 |
| 20260507042256 | 60 | 227 | 2.6 | 10.4 | 0.00 | 0.01 | 0.01 | 99 | 1001.5 |
| 20260507041754 | 60 | 209 | 2.6 | 9.6 | 0.02 | 0.01 | 0.01 | 99 | 1001.6 |
| 20260507041250 | 60 | 213 | 6.1 | 10.4 | 0.02 | 0.01 | 0.01 | 99 | 1001.8 |
| 20260507040747 | 60 | 182 | 2.6 | 7.0 | 0.00 | 0.00 | 0.00 | 99 | 1001.8 |
| 20260507040243 | 60 | 225 | 5.2 | 15.6 | 0.00 | 0.00 | 0.00 | 99 | 1001.7 |
| 20260507035739 | 60 | 216 | 1.7 | 9.6 | 0.00 | 0.00 | 0.00 | 99 | 1001.8 |
| 20260507035235 | 60 | 232 | 4.3 | 9.6 | 0.00 | 0.00 | 0.00 | 99 | 1002.3 |
| 20260507034733 | 60 | 202 | 3.5 | 7.8 | 0.02 | 0.00 | 0.00 | 98 | 1001.9 |
| 20260507034229 | 60 | 246 | 1.7 | 6.1 | 0.02 | 0.00 | 0.00 | 98 | 1002.2 |
| 20260507033728 | 60 | 213 | 1.7 | 7.0 | 0.00 | 0.00 | 0.00 | 97 | 1002.3 |
| 20260507033225 | 60 | 199 | 2.6 | 4.3 | 0.00 | 0.00 | 0.00 | 97 | 1002.5 |
| 20260507032722 | 60 | 132 | 1.7 | 10.4 | 0.00 | 0.00 | 0.00 | 97 | 1002.7 |
| 20260507032218 | 61 | 145 | 0.0 | 3.5 | 0.00 | 0.00 | 0.00 | 97 | 1002.7 |
| 20260507031715 | 61 | 164 | 0.0 | 6.1 | 0.00 | 0.00 | 0.00 | 97 | 1002.9 |
| 20260507031212 | 61 | 214 | 3.5 | 7.0 | 0.00 | 0.00 | 0.00 | 97 | 1002.8 |
| 20260507030708 | 61 | 218 | 4.3 | 10.4 | 0.00 | 0.00 | 0.00 | 97 | 1003.0 |
| 20260507030206 | 61 | 243 | 1.7 | 8.7 | 0.00 | 0.00 | 0.00 | 97 | 1003.2 |
| 20260507025703 | 61 | 241 | 4.3 | 7.0 | 0.00 | 0.00 | 0.00 | 97 | 1003.5 |
| 20260507025200 | 60 | 187 | 1.7 | 7.8 | 0.00 | 0.00 | 0.00 | 97 | 1003.7 |
| 20260507024658 | 60 | 261 | 0.0 | 5.2 | 0.00 | 0.00 | 0.00 | 97 | 1003.6 |
| 20260507024155 | 61 | 220 | 2.6 | 7.0 | 0.00 | 0.00 | 0.00 | 96 | 1003.9 |
| 20260507023650 | 61 | 180 | 1.7 | 7.8 | 0.00 | 0.00 | 0.00 | 96 | 1004.0 |
| 20260507023148 | 61 | 151 | 2.6 | 5.2 | 0.00 | 0.00 | 0.00 | 96 | 1004.2 |
| 20260507022644 | 61 | 202 | 3.5 | 9.6 | 0.00 | 0.03 | 0.03 | 95 | 1004.2 |
| 20260507022135 | 61 | 11 | 0.9 | 7.8 | 0.00 | 0.03 | 0.03 | 95 | 1004.1 |
| 20260507021631 | 61 | 173 | 2.6 | 9.6 | 0.00 | 0.03 | 0.03 | 95 | 1004.1 |
| 20260507021127 | 61 | 184 | 7.0 | 11.3 | 0.00 | 0.03 | 0.03 | 95 | 1004.2 |
| 20260507020625 | 61 | 222 | 4.3 | 15.6 | 0.00 | 0.03 | 0.03 | 95 | 1004.2 |
| 20260507020121 | 61 | 238 | 2.6 | 9.6 | 0.00 | 0.03 | 0.03 | 95 | 1004.4 |
| 20260507015620 | 61 | 217 | 3.5 | 10.4 | 0.00 | 0.03 | 0.03 | 95 | 1004.5 |
| 20260507015117 | 61 | 215 | 3.5 | 7.0 | 0.00 | 0.03 | 0.03 | 95 | 1004.5 |
| 20260507014613 | 61 | 240 | 0.0 | 9.6 | 0.00 | 0.03 | 0.03 | 95 | 1004.5 |
| 20260507014109 | 61 | 191 | 3.5 | 7.8 | 0.00 | 0.03 | 0.03 | 95 | 1004.7 |
| 20260507013606 | 61 | 186 | 4.3 | 13.0 | 0.00 | 0.03 | 0.03 | 95 | 1004.6 |
| 20260507013103 | 60 | 152 | 2.6 | 9.6 | 0.00 | 0.03 | 0.03 | 95 | 1005.0 |
| 20260507012601 | 60 | 234 | 5.2 | 10.4 | 0.00 | 0.03 | 0.03 | 95 | 1005.2 |
| 20260507012056 | 60 | 260 | 7.8 | 9.6 | 0.00 | 0.03 | 0.03 | 95 | 1005.2 |
| 20260507011554 | 60 | 175 | 6.1 | 9.6 | 0.00 | 0.03 | 0.03 | 95 | 1005.4 |
| 20260507011050 | 60 | 245 | 4.3 | 7.0 | 0.00 | 0.03 | 0.03 | 96 | 1005.5 |
| 20260507010544 | 60 | 213 | 6.1 | 13.9 | 0.00 | 0.03 | 0.03 | 96 | 1005.8 |
| 20260507010041 | 60 | 150 | 3.5 | 9.6 | 0.00 | 0.03 | 0.03 | 96 | 1005.6 |
| 20260507005539 | 60 | 90 | 1.7 | 7.8 | 0.00 | 0.03 | 0.03 | 96 | 1005.3 |
| 20260507005035 | 60 | 238 | 4.3 | 8.7 | 0.00 | 0.03 | 0.03 | 96 | 1005.6 |
| 20260507004532 | 60 | 192 | 2.6 | 7.8 | 0.00 | 0.03 | 0.03 | 96 | 1006.0 |
| 20260507004030 | 60 | 210 | 2.6 | 8.7 | 0.00 | 0.03 | 0.03 | 96 | 1006.1 |
| 20260507003525 | 60 | 135 | 5.2 | 10.4 | 0.00 | 0.03 | 0.03 | 95 | 1006.1 |
| 20260507003020 | 60 | 230 | 3.5 | 7.0 | 0.00 | 0.03 | 0.03 | 95 | 1006.2 |
| 20260507002517 | 60 | 219 | 1.7 | 13.9 | 0.00 | 0.03 | 0.03 | 95 | 1006.4 |
| 20260507002013 | 60 | 248 | 3.5 | 15.6 | 0.00 | 0.03 | 0.03 | 95 | 1006.3 |
| 20260507001510 | 60 | 203 | 3.5 | 7.8 | 0.00 | 0.03 | 0.03 | 96 | 1006.4 |
| 20260507001008 | 60 | 188 | 5.2 | 9.6 | 0.00 | 0.03 | 0.03 | 96 | 1006.2 |
| 20260507000503 | 60 | 212 | 2.6 | 4.3 | 0.00 | 0.03 | 0.03 | 96 | 1006.3 |
| 20260506235958 | 60 | 176 | 3.5 | 4.3 | 0.00 | 0.03 | 0.03 | 96 | 1006.5 |
| 20260506235456 | 60 | 195 | 3.5 | 3.5 | 0.00 | 0.03 | 0.03 | 96 | 1006.7 |
| 20260506234952 | 60 | 204 | 3.5 | 11.3 | 0.00 | 0.03 | 0.03 | 97 | 1006.9 |
| 20260506234449 | 60 | 227 | 2.6 | 5.2 | 0.00 | 0.03 | 0.03 | 96 | 1006.6 |
| 20260506233947 | 60 | 212 | 2.6 | 6.1 | 0.00 | 0.03 | 0.03 | 95 | 1006.7 |
| 20260506233443 | 60 | 192 | 1.7 | 10.4 | 0.00 | 0.03 | 0.03 | 95 | 1006.7 |
| 20260506232940 | 60 | 205 | 3.5 | 8.7 | 0.00 | 0.03 | 0.03 | 95 | 1007.1 |
| 20260506232436 | 60 | 212 | 5.2 | 13.0 | 0.00 | 0.03 | 0.03 | 94 | 1006.8 |
| 20260506231932 | 61 | 241 | 4.3 | 14.8 | 0.00 | 0.03 | 0.03 | 94 | 1006.7 |
| 20260506231430 | 61 | 83 | 2.6 | 9.6 | 0.00 | 0.03 | 0.03 | 95 | 1006.9 |
| 20260506230927 | 61 | 184 | 1.7 | 7.8 | 0.00 | 0.03 | 0.03 | 94 | 1006.9 |
| 20260506230423 | 61 | 218 | 1.7 | 12.2 | 0.00 | 0.03 | 0.03 | 94 | 1006.6 |
| 20260506225920 | 61 | 210 | 1.7 | 15.6 | 0.00 | 0.03 | 0.03 | 94 | 1006.6 |
| 20260506225417 | 61 | 255 | 1.7 | 6.1 | 0.00 | 0.03 | 0.03 | 94 | 1007.1 |
| 20260506224914 | 61 | 249 | 4.3 | 8.7 | 0.00 | 0.03 | 0.03 | 93 | 1006.8 |
| 20260506224411 | 61 | 209 | 5.2 | 12.2 | 0.00 | 0.03 | 0.03 | 93 | 1007.0 |
| 20260506223907 | 61 | 190 | 4.3 | 6.1 | 0.00 | 0.03 | 0.03 | 93 | 1006.5 |
| 20260506223403 | 62 | 161 | 3.5 | 12.2 | 0.00 | 0.03 | 0.03 | 93 | 1007.0 |
| 20260506222900 | 62 | 239 | 3.5 | 6.1 | 0.00 | 0.03 | 0.03 | 93 | 1007.2 |
| 20260506222356 | 62 | 185 | 1.7 | 3.5 | 0.00 | 0.03 | 0.03 | 93 | 1007.0 |
| 20260506221854 | 62 | 243 | 3.5 | 7.8 | 0.00 | 0.03 | 0.03 | 92 | 1006.8 |
| 20260506221351 | 62 | 239 | 2.6 | 6.1 | 0.00 | 0.03 | 0.03 | 92 | 1007.0 |
| 20260506220848 | 62 | 202 | 4.3 | 7.0 | 0.00 | 0.03 | 0.03 | 92 | 1006.8 |
| 20260506220343 | 62 | 220 | 2.6 | 5.2 | 0.00 | 0.03 | 0.03 | 92 | 1006.9 |
| 20260506215841 | 62 | 225 | 2.6 | 8.7 | 0.00 | 0.03 | 0.03 | 92 | 1006.3 |
| 20260506215336 | 62 | 206 | 4.3 | 13.9 | 0.00 | 0.03 | 0.03 | 92 | 1006.4 |
| 20260506214833 | 62 | 223 | 3.5 | 7.8 | 0.00 | 0.03 | 0.03 | 92 | 1007.0 |
| 20260506214329 | 62 | 180 | 2.6 | 13.0 | 0.00 | 0.03 | 0.03 | 92 | 1006.3 |
| 20260506213828 | 62 | 224 | 7.0 | 9.6 | 0.00 | 0.03 | 0.03 | 92 | 1006.3 |
| 20260506213325 | 62 | 270 | 4.3 | 7.0 | 0.00 | 0.03 | 0.03 | 91 | 1006.5 |
| 20260506212822 | 62 | 182 | 6.1 | 11.3 | 0.00 | 0.03 | 0.03 | 91 | 1006.5 |
| 20260506212318 | 62 | 221 | 9.6 | 9.6 | 0.00 | 0.03 | 0.03 | 91 | 1006.5 |
| 20260506211813 | 62 | 241 | 5.2 | 11.3 | 0.00 | 0.03 | 0.03 | 91 | 1006.7 |
| 20260506211309 | 62 | 161 | 2.6 | 14.8 | 0.00 | 0.03 | 0.03 | 91 | 1006.6 |
| 20260506210807 | 62 | 207 | 5.2 | 11.3 | 0.00 | 0.03 | 0.03 | 91 | 1006.6 |
| 20260506210303 | 62 | 194 | 3.5 | 8.7 | 0.00 | 0.03 | 0.03 | 90 | 1006.8 |
| 20260506205800 | 62 | 217 | 3.5 | 16.5 | 0.00 | 0.03 | 0.03 | 90 | 1006.6 |
| 20260506205256 | 62 | 219 | 2.6 | 9.6 | 0.00 | 0.03 | 0.03 | 90 | 1006.6 |
| 20260506204753 | 63 | 181 | 4.3 | 12.2 | 0.00 | 0.03 | 0.03 | 90 | 1006.5 |
| 20260506204251 | 63 | 191 | 6.1 | 7.0 | 0.00 | 0.03 | 0.03 | 90 | 1006.6 |
| 20260506203748 | 63 | 355 | 1.7 | 9.6 | 0.00 | 0.03 | 0.03 | 90 | 1006.5 |
| 20260506203245 | 62 | 247 | 5.2 | 6.1 | 0.00 | 0.03 | 0.03 | 90 | 1006.6 |
| 20260506202743 | 63 | 134 | 12.2 | 12.2 | 0.00 | 0.03 | 0.03 | 90 | 1006.7 |
| 20260506202239 | 62 | 186 | 3.5 | 13.9 | 0.00 | 0.03 | 0.03 | 90 | 1006.8 |
| 20260506201736 | 62 | 218 | 4.3 | 11.3 | 0.00 | 0.03 | 0.03 | 90 | 1006.6 |
| 20260506201232 | 62 | 213 | 4.3 | 9.6 | 0.00 | 0.03 | 0.03 | 90 | 1006.8 |
| 20260506200729 | 62 | 208 | 4.3 | 13.0 | 0.00 | 0.03 | 0.03 | 90 | 1006.7 |
| 20260506200226 | 62 | 214 | 5.2 | 9.6 | 0.00 | 0.03 | 0.03 | 90 | 1006.8 |
| 20260506195722 | 62 | 156 | 3.5 | 15.6 | 0.00 | 0.03 | 0.03 | 90 | 1006.8 |
| 20260506195219 | 62 | 233 | 6.1 | 6.1 | 0.00 | 0.03 | 0.03 | 90 | 1006.9 |
| 20260506194716 | 62 | 223 | 3.5 | 12.2 | 0.00 | 0.03 | 0.03 | 90 | 1006.8 |
| 20260506194212 | 62 | 215 | 2.6 | 11.3 | 0.00 | 0.03 | 0.03 | 91 | 1006.7 |
| 20260506193710 | 62 | 182 | 13.0 | 17.4 | 0.00 | 0.03 | 0.03 | 91 | 1007.0 |
| 20260506193207 | 62 | 197 | 6.1 | 13.0 | 0.00 | 0.03 | 0.03 | 90 | 1007.0 |
| 20260506192658 | 62 | 267 | 2.6 | 6.1 | 0.00 | 0.03 | 0.03 | 91 | 1006.9 |
| 20260506192154 | 62 | 196 | 7.0 | 7.8 | 0.00 | 0.03 | 0.03 | 90 | 1006.8 |
| 20260506191652 | 62 | 297 | 0.9 | 18.2 | 0.00 | 0.03 | 0.03 | 90 | 1006.9 |
| 20260506191148 | 62 | 218 | 4.3 | 13.0 | 0.00 | 0.03 | 0.03 | 90 | 1006.9 |
| 20260506190645 | 62 | 192 | 4.3 | 14.8 | 0.00 | 0.03 | 0.03 | 90 | 1007.0 |
| 20260506190142 | 62 | 192 | 4.3 | 8.7 | 0.00 | 0.03 | 0.03 | 91 | 1007.0 |
| 20260506185639 | 62 | 200 | 7.0 | 9.6 | 0.00 | 0.03 | 0.03 | 90 | 1007.0 |
| 20260506185135 | 61 | 246 | 0.0 | 16.5 | 0.00 | 0.03 | 0.03 | 90 | 1007.0 |
| 20260506184632 | 62 | 166 | 4.3 | 14.8 | 0.00 | 0.03 | 0.03 | 90 | 1007.0 |
| 20260506184130 | 61 | 190 | 1.7 | 6.1 | 0.00 | 0.03 | 0.03 | 90 | 1006.9 |
| 20260506183626 | 61 | 196 | 6.1 | 20.9 | 0.00 | 0.03 | 0.03 | 90 | 1006.8 |
| 20260506183122 | 61 | 230 | 7.0 | 10.4 | 0.00 | 0.03 | 0.03 | 91 | 1007.1 |
| 20260506182620 | 61 | 205 | 7.8 | 13.9 | 0.00 | 0.03 | 0.03 | 90 | 1006.8 |
| 20260506182117 | 60 | 209 | 4.3 | 9.6 | 0.00 | 0.03 | 0.03 | 91 | 1007.0 |
| 20260506181615 | 61 | 202 | 4.3 | 18.2 | 0.00 | 0.03 | 0.03 | 91 | 1007.1 |
| 20260506181112 | 60 | 204 | 9.6 | 9.6 | 0.00 | 0.03 | 0.03 | 91 | 1007.3 |
| 20260506180608 | 61 | 221 | 0.0 | 7.0 | 0.00 | 0.03 | 0.03 | 90 | 1007.2 |
| 20260506180105 | 60 | 216 | 5.2 | 11.3 | 0.00 | 0.03 | 0.03 | 91 | 1007.2 |
| 20260506175601 | 60 | 227 | 6.1 | 9.6 | 0.00 | 0.03 | 0.03 | 91 | 1007.4 |
| 20260506175057 | 60 | 198 | 11.3 | 13.0 | 0.00 | 0.03 | 0.03 | 91 | 1007.6 |